Date String (YYYY-MM-DD hh:mm:ss) UTC,Instrument flags,absolute air pressure of the measurement (hPa),sample flow rate (lpm),inlet stack bypass flow (lpm),air temperature of the measurement (°C),ambient temperature measured by the external sensor (°C),aerosol sample conditioner tube jacket temperature (°C),OPC LED temperature (°C),internal box temperature (°C),relative humidity of the measurement (%),span deviation,mass concentration of particles derived from Lorenz-Mie calculation of OPC scattering (μg/m³),mass concentration of particles derived from Lorenz-Mie calculation of OPC scattering (μg/m³),mass concentration of particles derived from Lorenz-Mie calculation of OPC scattering (μg/m³)
DateTimeUTC,F1_M11,P_M11,Q1_M11,Q2_M11,T1_M11,T2_M11,T3_M11,T4_M11,T5_M11,U1_M11,ZSPAN_M11,X0_M11,X2_M11,X1_M11
2023-10-26 17:00:00,SystemResetWarning,0824.0,5.00,000.00,028.6,027.2,000.0,037.1,030.2,21.1,-002.2,0011.06,0007.80,0007.45
2023-10-26 17:01:00,SystemResetWarning,0824.2,5.01,000.00,028.6,027.2,000.0,037.1,030.2,21.2,-002.3,0011.01,0007.74,0007.43
2023-10-26 17:02:00,SystemResetWarning,0824.2,4.99,000.00,028.6,027.2,000.0,037.1,030.2,21.2,-002.3,0011.15,0007.69,0007.39
2023-10-26 17:03:00,SystemResetWarning,0824.1,5.00,000.00,028.6,027.1,000.0,037.1,030.2,21.1,-002.4,0011.22,0007.65,0007.37
2023-10-26 17:04:00,SystemResetWarning,0824.1,5.00,000.00,028.6,027.2,000.0,037.1,030.2,21.1,-002.5,0011.24,0007.69,0007.38
2023-10-26 17:05:00,SystemResetWarning,0824.1,5.00,000.00,028.6,027.2,000.0,037.1,030.2,21.2,-002.7,0011.27,0007.69,0007.38
2023-10-26 17:06:00,SystemResetWarning,0824.0,5.00,000.00,028.6,027.1,000.0,037.1,030.2,21.2,-002.8,0011.21,0007.69,0007.38
2023-10-26 17:07:00,SystemResetWarning,0824.0,4.99,000.00,028.6,027.1,000.0,037.1,030.2,21.2,-002.8,0011.22,0007.68,0007.36
2023-10-26 17:08:00,SystemResetWarning,0823.9,4.99,000.00,028.6,027.1,000.0,037.1,030.1,21.2,-002.8,0011.19,0007.66,0007.34
2023-10-26 17:09:00,SystemResetWarning,0824.0,5.00,000.00,028.6,027.1,000.0,037.1,030.1,21.1,-002.6,0011.87,0007.66,0007.34
2023-10-26 17:10:00,SystemResetWarning,0824.0,5.00,000.00,028.6,027.1,000.0,037.1,030.1,21.1,-002.5,0011.89,0007.65,0007.32
2023-10-26 17:11:00,SystemResetWarning,0824.0,5.00,000.00,028.6,027.1,000.0,037.1,030.2,21.1,-002.5,0011.88,0007.62,0007.30
2023-10-26 17:12:00,SystemResetWarning,0824.0,5.01,000.00,028.6,027.1,000.0,037.1,030.2,21.1,-002.4,0011.87,0007.65,0007.31
2023-10-26 17:13:00,SystemResetWarning,0824.1,5.00,000.00,028.6,027.1,000.0,037.1,030.2,21.1,-002.5,0012.04,0007.68,0007.33
2023-10-26 17:14:00,SystemResetWarning,0824.1,5.00,000.00,028.6,027.1,000.0,037.1,030.2,21.1,-002.3,0012.21,0007.64,0007.30
2023-10-26 17:15:00,SystemResetWarning,0824.1,5.00,000.00,028.6,027.2,000.0,037.1,030.2,21.1,-002.4,0012.08,0007.55,0007.21
2023-10-26 17:16:00,SystemResetWarning,0824.1,5.01,000.00,028.6,027.1,000.0,037.1,030.1,21.0,-002.2,0011.84,0007.46,0007.13
2023-10-26 17:17:00,SystemResetWarning,0824.0,5.00,000.00,028.6,027.1,000.0,037.0,030.1,20.9,-002.2,0011.77,0007.39,0007.04
2023-10-26 17:18:00,SystemResetWarning,0824.0,5.00,000.00,028.6,027.0,000.0,037.0,030.1,20.8,-002.3,0011.65,0007.30,0006.95
2023-10-26 17:19:00,SystemResetWarning,0824.0,5.00,000.00,028.6,027.0,000.0,037.0,030.1,20.8,-002.3,0011.52,0007.21,0006.88
2023-10-26 17:20:00,SystemResetWarning,0824.0,5.00,000.00,028.5,027.0,000.0,037.0,030.1,20.8,-002.3,0010.87,0007.12,0006.80
2023-10-26 17:21:00,SystemResetWarning,0823.9,4.99,000.00,028.5,027.0,000.0,037.0,030.1,20.9,-002.3,0010.54,0007.05,0006.74
2023-10-26 17:22:00,SystemResetWarning,0823.9,5.00,000.00,028.5,027.0,000.0,037.0,030.1,20.8,-002.3,0010.45,0007.00,0006.69
2023-10-26 17:23:00,SystemResetWarning,0823.8,5.00,000.00,028.5,027.0,000.0,037.0,030.1,20.8,-002.0,0010.36,0006.94,0006.63
2023-10-26 17:24:00,SystemResetWarning,0823.8,4.99,000.00,028.5,027.0,000.0,037.0,030.1,20.9,-002.0,0010.16,0006.84,0006.56
2023-10-26 17:25:00,SystemResetWarning,0823.8,5.00,000.00,028.5,027.0,000.0,037.0,030.0,20.9,-002.0,0009.38,0006.75,0006.49
2023-10-26 17:26:00,SystemResetWarning,0823.8,5.00,000.00,028.5,027.0,000.0,037.0,030.0,20.9,-002.2,0009.33,0006.74,0006.46
2023-10-26 17:27:00,SystemResetWarning,0823.8,4.99,000.00,028.5,026.9,000.0,037.0,030.0,20.9,-002.1,0009.33,0006.74,0006.47
2023-10-26 17:28:00,SystemResetWarning,0823.8,5.00,000.00,028.5,026.9,000.0,037.0,030.0,20.9,-002.2,0009.40,0006.79,0006.51
2023-10-26 17:29:00,SystemResetWarning,0823.9,5.00,000.00,028.5,027.0,000.0,037.0,030.1,20.9,-002.0,0009.42,0006.81,0006.54
2023-10-26 17:30:00,SystemResetWarning,0823.9,5.00,000.00,028.5,027.0,000.0,037.0,030.1,21.0,-001.7,0009.48,0006.83,0006.56
2023-10-26 17:31:00,SystemResetWarning,0823.9,5.00,000.00,028.5,027.1,000.0,037.0,030.1,21.0,-001.6,0009.54,0006.85,0006.58
2023-10-26 17:32:00,SystemResetWarning,0823.8,5.00,000.00,028.5,027.1,000.0,037.0,030.1,21.0,-001.6,0009.59,0006.89,0006.63
2023-10-26 17:33:00,SystemResetWarning,0823.8,5.00,000.00,028.5,027.1,000.0,037.0,030.1,21.1,-001.7,0009.66,0006.94,0006.67
2023-10-26 17:34:00,SystemResetWarning,0823.8,5.01,000.00,028.5,027.2,000.0,037.0,030.1,21.2,-001.9,0009.72,0006.97,0006.69
2023-10-26 17:35:00,SystemResetWarning,0824.0,5.00,000.00,028.5,027.2,000.0,037.0,030.1,21.3,-002.0,0009.76,0007.03,0006.74
2023-10-26 17:36:00,SystemResetWarning,0823.9,5.00,000.00,028.5,027.2,000.0,037.0,030.1,21.3,-001.9,0009.83,0007.09,0006.78
2023-10-26 17:37:00,SystemResetWarning,0823.8,5.00,000.00,028.6,027.3,000.0,037.0,030.2,21.4,-001.6,0009.83,0007.10,0006.81
2023-10-26 17:38:00,SystemResetWarning,0823.7,4.99,000.00,028.6,027.3,000.0,037.0,030.2,22.0,-001.7,0009.93,0007.13,0006.83
2023-10-26 17:39:00,SystemResetWarning,0823.7,5.00,000.00,028.6,027.3,000.0,037.0,030.2,21.9,-001.7,0010.03,0007.10,0006.80
2023-10-26 17:40:00,SystemResetWarning,0823.8,5.00,000.00,028.6,027.3,000.0,037.0,030.2,21.6,-001.7,0010.17,0007.08,0006.80
2023-10-26 17:41:00,SystemResetWarning,0823.9,4.99,000.00,028.6,027.3,000.0,037.0,030.2,21.5,-001.7,0010.65,0007.10,0006.82
2023-10-26 17:42:00,SystemResetWarning,0823.9,4.99,000.00,028.6,027.3,000.0,037.0,030.2,21.5,-001.7,0010.60,0007.14,0006.85
2023-10-26 17:43:00,SystemResetWarning,0823.9,5.01,000.00,028.6,027.3,000.0,037.0,030.2,21.4,-001.6,0010.67,0007.18,0006.87
2023-10-26 17:44:00,SystemResetWarning,0823.8,5.00,000.00,028.6,027.3,000.0,037.0,030.2,21.3,-001.5,0010.67,0007.18,0006.86
2023-10-26 17:45:00,SystemResetWarning,0823.8,5.01,000.00,028.6,027.3,000.0,037.0,030.2,21.2,-001.3,0010.67,0007.18,0006.86
2023-10-26 17:46:00,SystemResetWarning,0823.8,5.00,000.00,028.6,027.3,000.0,037.0,030.2,21.2,-001.4,0010.71,0007.19,0006.87
2023-10-26 17:47:00,SystemResetWarning,0823.8,5.00,000.00,028.6,027.4,000.0,037.0,030.3,21.2,-001.3,0010.87,0007.24,0006.88
2023-10-26 17:48:00,SystemResetWarning,0823.8,5.00,000.00,028.6,027.4,000.0,037.0,030.3,21.2,-001.3,0010.89,0007.29,0006.92
2023-10-26 17:49:00,SystemResetWarning,0823.8,5.00,000.00,028.6,027.4,000.0,037.1,030.3,21.1,-001.2,0010.93,0007.32,0006.94
2023-10-26 17:50:00,SystemResetWarning,0823.8,5.00,000.00,028.6,027.4,000.0,037.1,030.3,21.1,-001.0,0011.03,0007.37,0006.98
2023-10-26 17:51:00,SystemResetWarning,0823.8,5.00,000.00,028.7,027.4,000.0,037.1,030.3,21.1,-000.9,0011.03,0007.42,0007.01
2023-10-26 17:52:00,SystemResetWarning,0823.8,5.00,000.00,028.7,027.4,000.0,037.1,030.3,21.0,-001.1,0010.59,0007.45,0007.03
2023-10-26 17:53:00,SystemResetWarning,0823.8,5.00,000.00,028.7,027.4,000.0,037.1,030.3,20.8,-001.3,0010.69,0007.47,0007.04
2023-10-26 17:54:00,SystemResetWarning,0823.8,5.00,000.00,028.7,027.4,000.0,037.1,030.3,20.8,-001.6,0010.72,0007.49,0007.07
2023-10-26 17:55:00,SystemResetWarning,0823.7,5.00,000.00,028.7,027.4,000.0,037.1,030.3,20.9,-001.8,0011.25,0007.53,0007.10
2023-10-26 17:56:00,SystemResetWarning,0823.7,5.00,000.00,028.7,027.4,000.0,037.1,030.3,20.9,-001.9,0011.43,0007.59,0007.15
2023-10-26 17:57:00,SystemResetWarning,0823.8,5.00,000.00,028.7,027.4,000.0,037.1,030.3,20.9,-001.8,0011.43,0007.63,0007.19
2023-10-26 17:58:00,SystemResetWarning,0823.8,5.00,000.00,028.7,027.4,000.0,037.1,030.3,21.0,-001.9,0011.45,0007.62,0007.21
2023-10-26 17:59:00,SystemResetWarning,0823.8,5.00,000.00,028.7,027.4,000.0,037.1,030.3,20.9,-002.2,0011.58,0007.61,0007.22
